Location: Newark
(39.6867°N, 100.6772°W)
Time: 14:59:56
(UTC+00:00)

N. Korean satellite - Pass Details

Date: 26 September 2019
Orbit: 455 x 508 km, 97.2° (Epoch: 16 October)

Event Time Altitude Azimuth Distance (km) Brightness Sun altitude
Rises 11:52:41 0° 28° (NNE) 2,479 10.7 -8.8°
Reaches altitude 10° 11:55:07 10° 46° (NE) 1,604 10.0 -8.3°
Maximum altitude 11:57:42 20° 95° (E) 1,132 9.7 -7.8°
Drops below altitude 10° 12:00:17 10° 144° (SE) 1,605 9.7 -7.3°
Sets 12:02:43 0° 162° (SSE) 2,483 10.4 -6.8°
